WILDBLUE-1

Last updated on Mon Oct 14 2024 00:02:38 GMT+0000 (Coordinated Universal Time)

1 29643U 06054A 24287.45598775 -.00000049 00000+0 00000+0 0 9994 2 29643 1.2133 88.4815 0001849 116.0285 230.9907 1.00271410 47653
UTC large
Height (km)
Speed (km/s)
/
Latitude / Longitude
Inclination (degrees)
Orbital Period (minutes)
Azimuth
Elevation
Range (km)
Doppler Factor

Next 0 passes for location: London (51.5072 / 0.1276)

Sorry there are no passes over London.